Weather reports worldwide

Advertisment
Ploce, Croatia (14462): temperature & dewpoint: 06.11.2019 06:00:00 - 12.11.2019 06:00:00 (CET)Ploce, Croatia (14462): wind speed: 06.11.2019 06:00:00 - 12.11.2019 06:00:00 (CET)Ploce, Croatia (14462): wind direction: 06.11.2019 06:00:00 - 12.11.2019 06:00:00 (CET)Ploce, Croatia (14462): reduced air pressure: 06.11.2019 06:00:00 - 12.11.2019 06:00:00 (CET)Ploce, Croatia (14462): visibility: 06.11.2019 06:00:00 - 12.11.2019 06:00:00 (CET)
Date & Time tt [°C] td [°C] ff [km/h] ff [kn] dd ppp [hPa] vv [km]
12.11.2019 06:00:00 - - - - - - -
12.11.2019 05:00:00 11,5 10,3 7 4 NNE 1007,9 -
12.11.2019 04:00:00 12,4 10,0 7 4 NNE 1008,7 -
12.11.2019 03:00:00 - - - - - - -
12.11.2019 02:00:00 - - - - - - -
12.11.2019 01:00:00 11,4 9,0 11 6 ENE 1010,4 -
12.11.2019 00:00:00 - - - - - - -
11.11.2019 23:00:00 - - - - - - -
11.11.2019 22:00:00 12,7 9,8 0 0 N 1011,8 -
11.11.2019 21:00:00 14,4 11,1 4 2 NNW 1012,2 20
11.11.2019 20:00:00 15,0 10,6 4 2 ENE 1012,3 20
11.11.2019 19:00:00 15,8 10,3 7 4 E 1012,6 20
11.11.2019 18:00:00 17,0 10,0 11 6 E 1013,2 -
11.11.2019 17:00:00 16,9 10,6 11 6 ENE 1013,3 -
11.11.2019 16:00:00 17,4 11,0 11 6 E 1013,3 -
11.11.2019 15:00:00 18,3 11,4 11 6 ESE 1013,8 -
11.11.2019 14:00:00 19,4 12,0 14 8 ESE 1013,8 30
11.11.2019 13:00:00 18,8 11,5 18 10 ESE 1014,2 30
11.11.2019 12:00:00 17,4 11,4 11 6 ENE 1015,1 30
11.11.2019 11:00:00 16,2 10,4 7 4 NE 1015,8 30
11.11.2019 10:00:00 15,0 11,3 7 4 E 1015,9 30
11.11.2019 09:00:00 13,0 10,7 11 6 NNE 1016,2 30
11.11.2019 08:00:00 11,2 10,1 7 4 ENE 1016,6 20
11.11.2019 07:00:00 11,0 9,9 7 4 ESE 1016,5 30
11.11.2019 06:00:00 10,3 10,1 4 2 NE 1016,7 -
11.11.2019 05:00:00 10,9 10,4 0 0 N 1016,5 -
11.11.2019 04:00:00 11,3 10,9 4 2 NNE 1016,9 -
11.11.2019 03:00:00 - - - - - - -
11.11.2019 02:00:00 - - - - - - -
11.11.2019 01:00:00 11,4 10,9 7 4 ENE 1017,1 -
11.11.2019 00:00:00 - - - - - - -
10.11.2019 23:00:00 - - - - - - -
10.11.2019 22:00:00 11,3 10,4 4 2 NNW 1016,0 -
10.11.2019 21:00:00 12,6 10,6 11 6 NNW 1014,9 15
10.11.2019 20:00:00 13,0 10,9 7 4 WNW 1014,8 15
10.11.2019 19:00:00 12,4 10,8 4 2 NNE 1014,3 15
10.11.2019 18:00:00 12,8 11,6 4 2 NNE 1013,6 -
10.11.2019 17:00:00 13,1 11,2 11 6 E 1012,7 -
10.11.2019 16:00:00 14,1 11,3 7 4 SSE 1011,8 -
10.11.2019 15:00:00 16,3 9,5 11 6 SSW 1010,9 -
10.11.2019 14:00:00 16,6 9,9 11 6 SW 1009,7 30
10.11.2019 13:00:00 16,8 9,3 18 10 SW 1009,2 30
10.11.2019 12:00:00 16,5 10,9 4 2 SW 1008,8 30
10.11.2019 11:00:00 14,4 12,7 7 4 ENE 1008,7 30
10.11.2019 10:00:00 13,2 11,1 11 6 NNW 1008,6 20
10.11.2019 09:00:00 12,4 10,8 7 4 NW 1008,2 20
10.11.2019 08:00:00 11,0 10,1 0 0 N 1007,8 20
10.11.2019 07:00:00 10,6 10,0 4 2 ENE 1007,7 15
10.11.2019 06:00:00 9,9 9,7 4 2 ESE 1007,8 -
10.11.2019 05:00:00 9,8 9,6 4 2 E 1007,7 -
10.11.2019 04:00:00 10,2 9,8 11 6 ENE 1007,2 -
10.11.2019 03:00:00 - - - - - - -
10.11.2019 02:00:00 - - - - - - -
10.11.2019 01:00:00 11,8 9,6 11 6 NE 1006,4 -
10.11.2019 00:00:00 - - - - - - -
09.11.2019 23:00:00 - - - - - - -
09.11.2019 22:00:00 12,8 11,8 18 10 E 1009,5 -
09.11.2019 21:00:00 13,8 12,1 14 8 ENE 1009,0 15
09.11.2019 20:00:00 14,4 13,2 11 6 NNW 1009,0 20
09.11.2019 19:00:00 14,6 13,1 11 6 NNW 1009,3 20
09.11.2019 18:00:00 14,9 13,0 7 4 NW 1010,3 -
09.11.2019 17:00:00 14,7 12,6 4 2 E 1010,3 -
09.11.2019 16:00:00 15,9 12,5 7 4 NNW 1010,1 -
09.11.2019 15:00:00 16,3 12,1 18 10 NW 1010,0 -
09.11.2019 14:00:00 18,4 12,2 25 14 WNW 1009,1 20
09.11.2019 13:00:00 21,4 10,7 14 8 SW 1009,8 20
09.11.2019 12:00:00 19,8 12,7 22 12 S 1010,2 20
09.11.2019 11:00:00 19,8 13,0 14 8 S 1010,8 20
09.11.2019 10:00:00 19,5 14,0 18 10 S 1010,6 20
09.11.2019 09:00:00 19,2 13,4 14 8 SSW 1010,3 20
09.11.2019 08:00:00 19,2 13,1 14 8 S 1010,4 20
09.11.2019 07:00:00 19,0 13,6 22 12 S 1010,0 20
09.11.2019 06:00:00 18,7 13,6 14 8 S 1010,0 -
09.11.2019 05:00:00 19,4 13,9 22 12 SSE 1009,8 -
09.11.2019 04:00:00 19,5 13,3 18 10 SSE 1009,8 -
09.11.2019 03:00:00 - - - - - - -
09.11.2019 02:00:00 - - - - - - -
09.11.2019 01:00:00 19,4 13,0 22 12 SSE 1010,1 -
09.11.2019 00:00:00 - - - - - - -
08.11.2019 23:00:00 - - - - - - -
08.11.2019 22:00:00 18,7 14,2 22 12 SSE 1010,3 -
08.11.2019 21:00:00 17,6 11,6 22 12 SE 1010,2 20
08.11.2019 20:00:00 17,5 9,7 22 12 SE 1010,2 20
08.11.2019 19:00:00 17,0 10,2 14 8 SE 1010,2 20
08.11.2019 18:00:00 17,2 10,9 22 12 SE 1009,9 -
08.11.2019 17:00:00 17,3 9,8 18 10 SE 1009,7 -
08.11.2019 16:00:00 17,4 9,4 11 6 E 1009,4 -
08.11.2019 15:00:00 19,4 9,1 18 10 SSE 1009,2 -
08.11.2019 14:00:00 20,0 9,7 18 10 S 1008,5 30
08.11.2019 13:00:00 19,8 11,9 11 6 SSE 1008,5 30
08.11.2019 12:00:00 17,5 12,1 7 4 E 1008,3 20
08.11.2019 11:00:00 15,8 12,0 11 6 E 1008,3 20
08.11.2019 10:00:00 14,2 11,6 11 6 E 1009,0 20
08.11.2019 09:00:00 12,5 10,3 7 4 ENE 1008,9 20
08.11.2019 08:00:00 10,4 10,0 7 4 E 1008,5 4,0
08.11.2019 07:00:00 9,6 9,2 7 4 E 1007,9 20
08.11.2019 06:00:00 9,9 9,8 4 2 ENE 1007,7 -
08.11.2019 05:00:00 10,5 10,0 7 4 NNW 1007,3 -
08.11.2019 04:00:00 10,1 9,9 4 2 NNE 1007,3 -
08.11.2019 03:00:00 - - - - - - -
08.11.2019 02:00:00 - - - - - - -
08.11.2019 01:00:00 11,4 11,2 4 2 WNW 1008,2 -
08.11.2019 00:00:00 - - - - - - -
07.11.2019 23:00:00 - - - - - - -
07.11.2019 22:00:00 13,1 12,4 4 2 NW 1008,6 -
07.11.2019 21:00:00 14,8 12,7 11 6 NNW 1008,5 15
07.11.2019 20:00:00 15,0 13,5 7 4 NNE 1008,9 15
07.11.2019 19:00:00 15,2 14,0 4 2 ENE 1008,9 18
07.11.2019 18:00:00 14,9 14,3 4 2 NNE 1009,3 -
07.11.2019 17:00:00 15,3 14,6 4 2 NNW 1009,0 -
07.11.2019 16:00:00 15,9 13,8 4 2 SSW 1008,7 -
07.11.2019 15:00:00 16,5 15,1 4 2 NNW 1008,3 -
07.11.2019 14:00:00 15,8 13,4 7 4 W 1008,5 15
07.11.2019 13:00:00 18,4 13,5 7 4 NW 1008,4 15
07.11.2019 12:00:00 18,0 13,5 11 6 NNW 1008,4 15
07.11.2019 11:00:00 16,0 13,5 11 6 N 1008,4 15
07.11.2019 10:00:00 16,4 13,9 14 8 N 1008,3 15
07.11.2019 09:00:00 15,1 13,6 11 6 NNW 1008,1 30
07.11.2019 08:00:00 15,0 13,5 11 6 NNW 1007,6 20
07.11.2019 07:00:00 14,6 13,2 7 4 NW 1006,8 20
07.11.2019 06:00:00 15,1 14,0 11 6 ENE 1006,8 -
07.11.2019 05:00:00 14,9 14,0 7 4 ENE 1006,7 -
07.11.2019 04:00:00 14,8 13,8 7 4 S 1006,9 -
07.11.2019 03:00:00 - - - - - - -
07.11.2019 02:00:00 - - - - - - -
07.11.2019 01:00:00 14,8 13,4 14 8 E 1006,7 -
07.11.2019 00:00:00 - - - - - - -
06.11.2019 23:00:00 - - - - - - -
06.11.2019 22:00:00 15,5 11,9 7 4 ENE 1006,9 -
06.11.2019 21:00:00 15,8 11,9 11 6 E 1006,7 20
06.11.2019 20:00:00 15,1 12,5 14 8 E 1006,8 20
06.11.2019 19:00:00 15,0 12,8 7 4 N 1007,1 20
06.11.2019 18:00:00 15,1 13,2 14 8 ESE 1006,9 -
06.11.2019 17:00:00 16,1 13,6 11 6 E 1007,3 -
06.11.2019 16:00:00 17,2 13,8 18 10 SSE 1006,6 -
06.11.2019 15:00:00 17,8 14,4 18 10 SE 1006,7 -
06.11.2019 14:00:00 19,0 13,2 18 10 SE 1006,7 20
06.11.2019 13:00:00 19,2 13,1 11 6 S 1006,9 20
06.11.2019 12:00:00 19,4 13,7 14 8 S 1006,9 20
06.11.2019 11:00:00 20,2 13,1 18 10 SW 1007,3 30
06.11.2019 10:00:00 20,4 12,2 14 8 SW 1007,2 30
06.11.2019 09:00:00 20,4 12,8 11 6 WSW 1007,2 20
06.11.2019 08:00:00 20,2 13,3 22 12 SW 1006,8 20
06.11.2019 07:00:00 20,2 13,3 22 12 SW 1005,6 20
06.11.2019 06:00:00 20,0 13,5 22 12 SSW 1005,4 -

tt = temperature
td = dewpoint
ff = wind speed
dd = wind direction
ppp = reduced air pressure
vv = visibility

Next stations